Home   Weather   Davis   Past weeks

Flag for USA Past Weather in Davis, California, USA — Yesterday and Last 2 Weeks

Now
53 °F

Broken clouds.


Feels Like: 49 °F
Forecast: 47 / 52 °F
Wind: 12 mph from South

Location: Sacramento International Airport

Current Time: Jan 19, 2017 at 6:02:40 pm

Latest Report: Jan 19, 2017 at 4:53 pm


Visibility: 10 mi

Pressure: 29.79 "Hg

Humidity: 80%

Dew Point: 47 °F

Location of DavisLocation

Past Weather in Davis — Graph

°F

Davis Temperature Yesterday

Maximum temperature yesterday: 49 °F (at 1:57 pm)
Minimum temperature yesterday: 42 °F (at 1:20 am)
Average temperature yesterday: 47 °F

High & Low Weather Summary for the Past Weeks

 TemperatureHumidityPressure
High61 °F (Jan 8, 6:53 am)100% (Jan 4, 5:53 pm)30.26 "Hg (Jan 4, 5:53 pm)
Low29 °F (Jan 6, 7:53 am)56% (Jan 5, 12:53 pm)29.64 "Hg (Jan 10, 6:53 pm)
Average46 °F92%30.01 "Hg
* Reported Jan 4 4:53 pm — Jan 19 4:53 pm, Davis, Weather by CustomWeather, © 2017

Note: Actual official high and low records may vary slightly from our data, if they occured in-between our weather recording intervals... More about our weather records

Advertising

Davis Weather History for the Previous 24 Hours

Scroll right to see more
 ConditionsComfort  
Time TempWeatherWind HumidityBarometerVisibility
4:53 pm
Thu, Jan 19
53 °FBroken clouds.12 mph80%29.79 "Hg10 mi
3:53 pm55 °FScattered clouds.10 mph74%29.79 "Hg10 mi
2:53 pm56 °FScattered clouds.13 mph75%29.79 "Hg10 mi
1:53 pm55 °FScattered clouds.16 mph74%29.81 "Hg10 mi
12:53 pm54 °FScattered clouds.14 mph77%29.82 "Hg10 mi
11:53 am53 °FPartly sunny.10 mph86%29.85 "Hg10 mi
10:53 am53 °FMostly cloudy.13 mph83%29.87 "Hg10 mi
9:53 am51 °FBroken clouds.13 mph89%29.86 "Hg10 mi
8:53 am48 °FScattered clouds.10 mph93%29.85 "Hg10 mi
7:53 am47 °FSunny.8 mph93%29.83 "Hg10 mi
6:53 am47 °FLight rain. Fog.5 mph97%29.82 "Hg6 mi
5:53 am47 °FPassing clouds.12 mph93%29.80 "Hg10 mi
4:53 am47 °FLight rain. Passing clouds.13 mph97%29.78 "Hg10 mi
3:53 am48 °FPassing clouds.12 mph93%29.80 "Hg10 mi
2:53 am48 °FOvercast.13 mph93%29.80 "Hg10 mi
2:29 am48 °FPassing clouds.13 mph93%29.80 "Hg10 mi
1:53 am48 °FPartly cloudy.12 mph93%29.79 "Hg10 mi
12:53 am48 °FPassing clouds.14 mph93%29.78 "Hg10 mi
11:53 pm
Wed, Jan 18
48 °FPassing clouds.18 mph93%29.79 "Hg10 mi
10:53 pm49 °FMostly cloudy.23 mph93%29.78 "Hg10 mi
9:53 pm49 °FMostly cloudy.23 mph90%29.75 "Hg10 mi
9:31 pm48 °FMostly cloudy.26 mph93%29.73 "Hg10 mi
8:53 pm48 °FRain. Fog.23 mph93%29.78 "Hg6 mi
7:53 pm48 °FLight rain. Fog.39 mph93%29.71 "Hg6 mi
6:53 pm49 °FMostly cloudy.36 mph86%29.69 "Hg10 mi
6:15 pm49 °FLight rain. Mostly cloudy.40 mph86%29.71 "Hg8 mi
Weather by CustomWeather, © 2017

See weather overviewHow to use our weather pages